Time,TemperatureF,DewpointF,PressureIn,WindDirection,WindDirectionDegrees,WindSpeedMPH,WindSpeedGustMPH,Humidity,HourlyPrecipIn,Conditions,Clouds,dailyrainin,SoftwareType,DateUTC
2013-04-15 00:02:00,62.0,51.0,29.50,West,267,3.0,-999.0,67,-99.99,,,-99.99,,2013-04-15 05:02:00,
2013-04-15 00:12:00,62.0,51.0,29.50,West,267,3.0,-999.0,67,-99.99,,,-99.99,,2013-04-15 05:12:00,
2013-04-15 00:23:00,62.0,50.0,29.51,WSW,253,3.0,-999.0,65,-99.99,,,-99.99,,2013-04-15 05:23:00,
2013-04-15 00:32:00,61.0,49.0,29.51,WSW,249,2.0,-999.0,64,-99.99,,,-99.99,,2013-04-15 05:32:00,
2013-04-15 00:42:00,61.0,49.0,29.51,WSW,249,2.0,-999.0,64,-99.99,,,-99.99,,2013-04-15 05:42:00,
2013-04-15 00:53:00,61.0,49.0,29.52,SW,230,2.0,-999.0,64,-99.99,,,-99.99,,2013-04-15 05:53:00,
2013-04-15 01:02:00,61.0,50.0,29.53,WNW,302,3.0,-999.0,66,-99.99,,,-99.99,,2013-04-15 06:02:00,
2013-04-15 01:12:00,61.0,50.0,29.53,WNW,302,3.0,-999.0,66,-99.99,,,-99.99,,2013-04-15 06:12:00,
2013-04-15 01:22:00,60.0,50.0,29.54,SSW,211,2.0,-999.0,69,-99.99,,,-99.99,,2013-04-15 06:22:00,
2013-04-15 01:33:00,58.0,51.0,29.55,WSW,253,3.0,-999.0,78,-99.99,,,-99.99,,2013-04-15 06:33:00,
2013-04-15 01:42:00,58.0,51.0,29.55,WSW,253,3.0,-999.0,78,-99.99,,,-99.99,,2013-04-15 06:42:00,
2013-04-15 01:52:00,57.0,51.0,29.57,SW,225,1.0,-999.0,81,-99.99,,,-99.99,,2013-04-15 06:52:00,
2013-04-15 02:02:00,56.0,52.0,29.59,SW,228,3.0,-999.0,86,-99.99,,,-99.99,,2013-04-15 07:02:00,
2013-04-15 02:42:00,55.0,52.0,29.55,SW,232,2.0,-999.0,88,-99.99,,,-99.99,,2013-04-15 07:42:00,
2013-04-15 02:53:00,55.0,52.0,29.55,SW,223,2.0,-999.0,88,-99.99,,,-99.99,,2013-04-15 07:53:00,
2013-04-15 03:02:00,55.0,52.0,29.55,SW,222,1.0,-999.0,88,-99.99,,,-99.99,,2013-04-15 08:02:00,
2013-04-15 03:13:00,55.0,52.0,29.55,SW,222,1.0,-999.0,88,-99.99,,,-99.99,,2013-04-15 08:13:00,
2013-04-15 03:22:00,55.0,52.0,29.55,WSW,242,1.0,-999.0,88,-99.99,,,-99.99,,2013-04-15 08:22:00,
2013-04-15 03:42:00,55.0,52.0,29.55,WSW,254,1.0,-999.0,88,-99.99,,,-99.99,,2013-04-15 08:42:00,
2013-04-15 03:52:00,55.0,52.0,29.55,SW,227,1.0,-999.0,88,-99.99,,,-99.99,,2013-04-15 08:52:00,
2013-04-15 04:02:00,55.0,51.0,29.56,South,186,0.0,-999.0,87,-99.99,,,-99.99,,2013-04-15 09:02:00,
2013-04-15 04:12:00,55.0,51.0,29.56,South,186,0.0,-999.0,87,-99.99,,,-99.99,,2013-04-15 09:12:00,
2013-04-15 04:22:00,55.0,51.0,29.56,SW,230,1.0,-999.0,87,-99.99,,,-99.99,,2013-04-15 09:22:00,
2013-04-15 04:32:00,55.0,51.0,29.56,West,260,1.0,-999.0,86,-99.99,,,-99.99,,2013-04-15 09:32:00,
2013-04-15 04:42:00,55.0,51.0,29.56,West,260,1.0,-999.0,86,-99.99,,,-99.99,,2013-04-15 09:42:00,
2013-04-15 04:52:00,55.0,51.0,29.56,SW,215,0.0,-999.0,86,-99.99,,,-99.99,,2013-04-15 09:52:00,
2013-04-15 05:02:00,55.0,51.0,29.57,WSW,245,1.0,-999.0,86,-99.99,,,-99.99,,2013-04-15 10:02:00,
2013-04-15 05:13:00,55.0,51.0,29.57,WSW,245,1.0,-999.0,86,-99.99,,,-99.99,,2013-04-15 10:13:00,
2013-04-15 05:23:00,55.0,51.0,29.57,WSW,252,1.0,-999.0,87,-99.99,,,-99.99,,2013-04-15 10:23:00,
2013-04-15 05:33:00,55.0,51.0,29.59,WSW,248,1.0,-999.0,87,-99.99,,,-99.99,,2013-04-15 10:33:00,
2013-04-15 05:42:00,55.0,51.0,29.59,WSW,248,1.0,-999.0,87,-99.99,,,-99.99,,2013-04-15 10:42:00,
2013-04-15 05:53:00,55.0,51.0,29.59,WSW,238,0.0,-999.0,87,-99.99,,,-99.99,,2013-04-15 10:53:00,
2013-04-15 06:03:00,55.0,51.0,29.59,WSW,238,0.0,-999.0,87,-99.99,,,-99.99,,2013-04-15 11:03:00,
2013-04-15 06:12:00,55.0,51.0,29.59,WSW,238,0.0,-999.0,87,-99.99,,,-99.99,,2013-04-15 11:12:00,
2013-04-15 06:22:00,55.0,51.0,29.59,WSW,238,0.0,-999.0,87,-99.99,,,-99.99,,2013-04-15 11:22:00,
2013-04-15 06:32:00,55.0,51.0,29.60,WSW,238,0.0,-999.0,87,-99.99,,,-99.99,,2013-04-15 11:32:00,
2013-04-15 06:42:00,55.0,51.0,29.60,WSW,238,0.0,-999.0,87,-99.99,,,-99.99,,2013-04-15 11:42:00,
2013-04-15 06:52:00,55.0,51.0,29.60,WSW,240,0.0,-999.0,87,-99.99,,,-99.99,,2013-04-15 11:52:00,
2013-04-15 07:04:00,55.0,51.0,29.60,WSW,240,0.0,-999.0,87,-99.99,,,-99.99,,2013-04-15 12:04:00,
2013-04-15 07:14:00,55.0,51.0,29.60,WSW,240,0.0,-999.0,87,-99.99,,,-99.99,,2013-04-15 12:14:00,
2013-04-15 07:23:00,55.0,51.0,29.61,WSW,240,0.0,-999.0,87,-99.99,,,-99.99,,2013-04-15 12:23:00,
2013-04-15 07:33:00,55.0,51.0,29.61,WSW,240,0.0,-999.0,87,-99.99,,,-99.99,,2013-04-15 12:33:00,
2013-04-15 07:43:00,55.0,51.0,29.61,WSW,240,0.0,-999.0,87,-99.99,,,-99.99,,2013-04-15 12:43:00,
2013-04-15 07:53:00,55.0,51.0,29.62,WSW,240,1.0,-999.0,87,-99.99,,,-99.99,,2013-04-15 12:53:00,
2013-04-15 08:03:00,55.0,51.0,29.61,WSW,246,1.0,-999.0,87,-99.99,,,-99.99,,2013-04-15 13:03:00,
2013-04-15 08:12:00,55.0,51.0,29.61,WSW,246,1.0,-999.0,87,-99.99,,,-99.99,,2013-04-15 13:12:00,
2013-04-15 08:23:00,56.0,52.0,29.62,WSW,249,2.0,-999.0,87,-99.99,,,-99.99,,2013-04-15 13:23:00,
2013-04-15 08:33:00,56.0,52.0,29.61,WSW,250,1.0,-999.0,87,-99.99,,,-99.99,,2013-04-15 13:33:00,
2013-04-15 08:43:00,56.0,52.0,29.61,WSW,250,1.0,-999.0,87,-99.99,,,-99.99,,2013-04-15 13:43:00,
2013-04-15 08:54:00,56.0,52.0,29.61,West,263,1.0,-999.0,87,-99.99,,,-99.99,,2013-04-15 13:54:00,
2013-04-15 09:04:00,56.0,52.0,29.62,SSW,206,1.0,-999.0,87,-99.99,,,-99.99,,2013-04-15 14:04:00,
2013-04-15 09:13:00,56.0,52.0,29.62,SSW,206,1.0,-999.0,87,-99.99,,,-99.99,,2013-04-15 14:13:00,
2013-04-15 09:22:00,56.0,52.0,29.62,West,261,1.0,-999.0,87,-99.99,,,-99.99,,2013-04-15 14:22:00,
2013-04-15 09:33:00,57.0,53.0,29.63,SE,135,2.0,-999.0,87,-99.99,,,-99.99,,2013-04-15 14:33:00,
2013-04-15 09:44:00,57.0,53.0,29.63,SE,135,2.0,-999.0,87,-99.99,,,-99.99,,2013-04-15 14:44:00,
2013-04-15 09:53:00,57.0,53.0,29.63,SW,235,2.0,-999.0,88,-99.99,,,-99.99,,2013-04-15 14:53:00,
2013-04-15 10:03:00,57.0,53.0,29.62,West,261,2.0,-999.0,88,-99.99,,,-99.99,,2013-04-15 15:03:00,
2013-04-15 10:13:00,57.0,53.0,29.62,West,261,2.0,-999.0,88,-99.99,,,-99.99,,2013-04-15 15:13:00,
2013-04-15 10:23:00,57.0,54.0,29.65,West,271,3.0,-999.0,89,-99.99,,,-99.99,,2013-04-15 15:23:00,
2013-04-15 10:35:00,58.0,55.0,29.65,WSW,257,2.0,-999.0,89,-99.99,,,-99.99,,2013-04-15 15:35:00,
2013-04-15 10:43:00,58.0,55.0,29.65,WSW,257,2.0,-999.0,89,-99.99,,,-99.99,,2013-04-15 15:43:00,
2013-04-15 10:54:00,58.0,54.0,29.66,SSW,192,2.0,-999.0,88,-99.99,,,-99.99,,2013-04-15 15:54:00,
2013-04-15 11:04:00,58.0,54.0,29.65,SW,235,2.0,-999.0,88,-99.99,,,-99.99,,2013-04-15 16:04:00,
2013-04-15 11:13:00,58.0,54.0,29.65,SW,235,2.0,-999.0,88,-99.99,,,-99.99,,2013-04-15 16:13:00,
2013-04-15 11:24:00,58.0,54.0,29.63,WSW,257,1.0,-999.0,88,-99.99,,,-99.99,,2013-04-15 16:24:00,
2013-04-15 11:33:00,58.0,55.0,29.63,SW,235,1.0,-999.0,89,-99.99,,,-99.99,,2013-04-15 16:33:00,
2013-04-15 11:44:00,58.0,55.0,29.63,SW,235,1.0,-999.0,89,-99.99,,,-99.99,,2013-04-15 16:44:00,
2013-04-15 11:54:00,60.0,54.0,29.64,West,259,2.0,-999.0,81,-99.99,,,-99.99,,2013-04-15 16:54:00,
2013-04-15 12:03:00,60.0,53.0,29.64,West,267,4.0,-999.0,79,-99.99,,,-99.99,,2013-04-15 17:03:00,
2013-04-15 12:14:00,60.0,53.0,29.64,West,267,4.0,-999.0,79,-99.99,,,-99.99,,2013-04-15 17:14:00,
2013-04-15 12:22:00,60.0,52.0,29.64,West,275,2.0,-999.0,76,-99.99,,,-99.99,,2013-04-15 17:22:00,
2013-04-15 12:33:00,60.0,53.0,29.64,WSW,237,3.0,-999.0,78,-99.99,,,-99.99,,2013-04-15 17:33:00,
2013-04-15 12:43:00,60.0,53.0,29.64,WSW,237,3.0,-999.0,78,-99.99,,,-99.99,,2013-04-15 17:43:00,
2013-04-15 12:52:00,60.0,52.0,29.64,West,265,3.0,-999.0,74,-99.99,,,-99.99,,2013-04-15 17:52:00,
2013-04-15 13:03:00,60.0,53.0,29.65,West,265,5.0,-999.0,79,-99.99,,,-99.99,,2013-04-15 18:03:00,
2013-04-15 13:12:00,60.0,53.0,29.65,West,265,5.0,-999.0,79,-99.99,,,-99.99,,2013-04-15 18:12:00,
2013-04-15 13:23:00,61.0,52.0,29.65,West,259,4.0,-999.0,73,-99.99,,,-99.99,,2013-04-15 18:23:00,
2013-04-15 13:32:00,61.0,54.0,29.65,SW,231,2.0,-999.0,77,-99.99,,,-99.99,,2013-04-15 18:32:00,
2013-04-15 13:42:00,61.0,54.0,29.65,SW,231,2.0,-999.0,77,-99.99,,,-99.99,,2013-04-15 18:42:00,
2013-04-15 13:52:00,60.0,53.0,29.66,SW,226,5.0,-999.0,77,-99.99,,,-99.99,,2013-04-15 18:52:00,
2013-04-15 14:02:00,60.0,53.0,29.67,WNW,292,3.0,-999.0,78,-99.99,,,-99.99,,2013-04-15 19:02:00,
2013-04-15 14:12:00,60.0,53.0,29.67,WNW,292,3.0,-999.0,78,-99.99,,,-99.99,,2013-04-15 19:12:00,
2013-04-15 14:22:00,60.0,52.0,29.66,West,264,3.0,-999.0,76,-99.99,,,-99.99,,2013-04-15 19:22:00,
2013-04-15 14:50:00,59.0,51.0,29.67,West,263,3.0,-999.0,75,-99.99,,,-99.99,,2013-04-15 19:50:00,
2013-04-15 14:57:00,58.0,50.0,29.67,West,264,2.0,-999.0,76,-99.99,,,-99.99,,2013-04-15 19:57:00,
2013-04-15 15:02:00,58.0,51.0,29.67,SW,221,2.0,-999.0,78,-99.99,,,-99.99,,2013-04-15 20:02:00,
2013-04-15 15:11:00,58.0,51.0,29.67,SW,221,2.0,-999.0,78,-99.99,,,-99.99,,2013-04-15 20:11:00,
2013-04-15 15:22:00,58.0,52.0,29.67,SW,229,0.0,-999.0,80,-99.99,,,-99.99,,2013-04-15 20:22:00,
2013-04-15 15:32:00,58.0,53.0,29.67,SW,228,0.0,-999.0,82,-99.99,,,-99.99,,2013-04-15 20:32:00,
2013-04-15 15:42:00,58.0,53.0,29.67,SW,228,0.0,-999.0,82,-99.99,,,-99.99,,2013-04-15 20:42:00,
2013-04-15 15:52:00,57.0,52.0,29.67,WSW,244,1.0,-999.0,83,-99.99,,,-99.99,,2013-04-15 20:52:00,
2013-04-15 16:02:00,56.0,52.0,29.67,West,268,0.0,-999.0,88,-99.99,,,-99.99,,2013-04-15 21:02:00,
2013-04-15 16:12:00,56.0,52.0,29.67,West,268,0.0,-999.0,88,-99.99,,,-99.99,,2013-04-15 21:12:00,
2013-04-15 16:22:00,55.0,51.0,29.68,ENE,64,0.0,-999.0,87,-99.99,,,-99.99,,2013-04-15 21:22:00,
2013-04-15 16:32:00,53.0,49.0,29.68,NE,52,1.0,-999.0,85,-99.99,,,-99.99,,2013-04-15 21:32:00,
2013-04-15 16:43:00,53.0,49.0,29.68,NE,52,1.0,-999.0,85,-99.99,,,-99.99,,2013-04-15 21:43:00,
2013-04-15 16:53:00,52.0,49.0,29.66,ENE,67,1.0,-999.0,88,-99.99,,,-99.99,,2013-04-15 21:53:00,
2013-04-15 17:02:00,52.0,49.0,29.68,WSW,242,0.0,-999.0,91,-99.99,,,-99.99,,2013-04-15 22:02:00,
2013-04-15 17:13:00,52.0,49.0,29.68,WSW,242,0.0,-999.0,91,-99.99,,,-99.99,,2013-04-15 22:13:00,
2013-04-15 17:23:00,52.0,50.0,29.66,ENE,60,0.0,-999.0,93,-99.99,,,-99.99,,2013-04-15 22:23:00,
2013-04-15 17:33:00,51.0,49.0,29.67,ENE,68,0.0,-999.0,92,-99.99,,,-99.99,,2013-04-15 22:33:00,
2013-04-15 17:42:00,51.0,49.0,29.67,ENE,68,0.0,-999.0,92,-99.99,,,-99.99,,2013-04-15 22:42:00,
2013-04-15 17:52:00,51.0,49.0,29.67,NE,49,0.0,-999.0,93,-99.99,,,-99.99,,2013-04-15 22:52:00,
2013-04-15 18:02:00,51.0,49.0,29.67,NE,49,0.0,-999.0,93,-99.99,,,-99.99,,2013-04-15 23:02:00,
2013-04-15 18:12:00,51.0,49.0,29.67,NE,49,0.0,-999.0,93,-99.99,,,-99.99,,2013-04-15 23:12:00,
2013-04-15 18:22:00,51.0,49.0,29.68,NE,49,0.0,-999.0,94,-99.99,,,-99.99,,2013-04-15 23:22:00,
2013-04-15 18:32:00,51.0,50.0,29.67,NE,49,0.0,-999.0,95,-99.99,,,-99.99,,2013-04-15 23:32:00,
2013-04-15 18:42:00,51.0,50.0,29.67,NE,49,0.0,-999.0,95,-99.99,,,-99.99,,2013-04-15 23:42:00,
2013-04-15 18:52:00,51.0,50.0,29.67,NE,49,0.0,-999.0,95,-99.99,,,-99.99,,2013-04-15 23:52:00,
2013-04-15 19:02:00,51.0,50.0,29.69,NE,49,0.0,-999.0,95,-99.99,,,-99.99,,2013-04-16 00:02:00,
2013-04-15 19:12:00,51.0,50.0,29.69,NE,49,0.0,-999.0,95,-99.99,,,-99.99,,2013-04-16 00:12:00,
2013-04-15 19:22:00,51.0,50.0,29.69,NE,49,0.0,-999.0,95,-99.99,,,-99.99,,2013-04-16 00:22:00,
2013-04-15 19:32:00,51.0,50.0,29.69,NE,55,1.0,-999.0,95,-99.99,,,-99.99,,2013-04-16 00:32:00,
2013-04-15 19:42:00,51.0,50.0,29.69,NE,55,1.0,-999.0,95,-99.99,,,-99.99,,2013-04-16 00:42:00,
2013-04-15 19:52:00,50.0,48.0,29.70,ENE,64,1.0,-999.0,94,-99.99,,,-99.99,,2013-04-16 00:52:00,
2013-04-15 20:02:00,49.0,47.0,29.70,ENE,61,1.0,-999.0,94,-99.99,,,-99.99,,2013-04-16 01:02:00,
2013-04-15 20:12:00,48.0,46.0,29.72,ENE,68,1.0,-999.0,93,-99.99,,,-99.99,,2013-04-16 01:12:00,
2013-04-15 20:22:00,48.0,46.0,29.72,ENE,68,1.0,-999.0,93,-99.99,,,-99.99,,2013-04-16 01:22:00,
2013-04-15 20:32:00,47.0,44.0,29.72,ENE,69,2.0,-999.0,89,-99.99,,,-99.99,,2013-04-16 01:32:00,
2013-04-15 20:42:00,47.0,44.0,29.72,ENE,69,2.0,-999.0,89,-99.99,,,-99.99,,2013-04-16 01:42:00,
2013-04-15 20:52:00,46.0,43.0,29.73,ENE,74,1.0,-999.0,90,-99.99,,,-99.99,,2013-04-16 01:52:00,
2013-04-15 21:02:00,46.0,44.0,29.74,ENE,61,0.0,-999.0,93,-99.99,,,-99.99,,2013-04-16 02:02:00,
2013-04-15 21:12:00,46.0,44.0,29.74,ENE,61,0.0,-999.0,93,-99.99,,,-99.99,,2013-04-16 02:12:00,
2013-04-15 21:22:00,45.0,43.0,29.75,ENE,75,2.0,-999.0,93,-99.99,,,-99.99,,2013-04-16 02:22:00,
2013-04-15 21:32:00,45.0,43.0,29.77,ENE,65,0.0,-999.0,94,-99.99,,,-99.99,,2013-04-16 02:32:00,
2013-04-15 21:42:00,45.0,43.0,29.77,ENE,65,0.0,-999.0,94,-99.99,,,-99.99,,2013-04-16 02:42:00,
2013-04-15 21:52:00,45.0,44.0,29.77,ENE,63,0.0,-999.0,95,-99.99,,,-99.99,,2013-04-16 02:52:00,
2013-04-15 22:02:00,45.0,44.0,29.77,NE,42,0.0,-999.0,95,-99.99,,,-99.99,,2013-04-16 03:02:00,
2013-04-15 22:12:00,45.0,44.0,29.77,NE,42,0.0,-999.0,95,-99.99,,,-99.99,,2013-04-16 03:12:00,
2013-04-15 22:22:00,45.0,44.0,29.79,NNE,26,0.0,-999.0,95,-99.99,,,-99.99,,2013-04-16 03:22:00,
2013-04-15 22:33:00,45.0,44.0,29.80,ENE,68,0.0,-999.0,95,-99.99,,,-99.99,,2013-04-16 03:33:00,
2013-04-15 22:43:00,45.0,44.0,29.80,ENE,68,0.0,-999.0,95,-99.99,,,-99.99,,2013-04-16 03:43:00,
2013-04-15 22:52:00,45.0,44.0,29.79,ENE,65,0.0,-999.0,95,-99.99,,,-99.99,,2013-04-16 03:52:00,
2013-04-15 23:03:00,45.0,44.0,29.77,East,84,1.0,-999.0,95,-99.99,,,-99.99,,2013-04-16 04:03:00,
2013-04-15 23:12:00,45.0,44.0,29.77,East,84,1.0,-999.0,95,-99.99,,,-99.99,,2013-04-16 04:12:00,
2013-04-15 23:23:00,46.0,45.0,29.77,ENE,59,1.0,-999.0,95,-99.99,,,-99.99,,2013-04-16 04:23:00,
2013-04-15 23:33:00,46.0,45.0,29.76,NE,49,1.0,-999.0,95,-99.99,,,-99.99,,2013-04-16 04:33:00,
2013-04-15 23:42:00,46.0,45.0,29.76,NE,49,1.0,-999.0,95,-99.99,,,-99.99,,2013-04-16 04:42:00,
2013-04-15 23:53:00,46.0,45.0,29.75,NE,51,1.0,-999.0,95,-99.99,,,-99.99,,2013-04-16 04:53:00,